Time,TemperatureF,DewpointF,PressureIn,WindDirection,WindDirectionDegrees,WindSpeedMPH,WindSpeedGustMPH,Humidity,HourlyPrecipIn,Conditions,Clouds,dailyrainin,SolarRadiationWatts/m^2,SoftwareType,DateUTC
2013-06-04 00:03:00,60.0,50.0,-100.00,NW,313,2.0,8.0,69,0.00,,,0.08,0.000000,,2013-06-04 04:03:00,
2013-06-04 00:13:00,60.0,50.0,-100.00,NW,313,2.0,8.0,69,0.00,,,0.08,0.000000,,2013-06-04 04:13:00,
2013-06-04 00:23:00,60.0,50.0,-100.00,NW,313,2.0,8.0,69,0.00,,,0.08,0.000000,,2013-06-04 04:23:00,
2013-06-04 00:53:00,58.0,49.0,-100.00,NW,319,2.0,7.0,72,0.00,,,0.08,0.000000,,2013-06-04 04:53:00,
2013-06-04 01:03:00,58.0,49.0,-100.00,NW,319,2.0,7.0,72,0.00,,,0.08,0.000000,,2013-06-04 05:03:00,
2013-06-04 01:12:00,58.0,49.0,-100.00,NW,319,2.0,7.0,72,0.00,,,0.08,0.000000,,2013-06-04 05:12:00,
2013-06-04 01:22:00,58.0,49.0,-100.00,NW,319,2.0,7.0,72,0.00,,,0.08,0.000000,,2013-06-04 05:22:00,
2013-06-04 01:52:00,56.0,50.0,-100.00,NNW,328,2.0,6.0,80,0.00,,,0.08,0.000000,,2013-06-04 05:52:00,
2013-06-04 02:02:00,56.0,50.0,-100.00,NNW,328,2.0,6.0,80,0.00,,,0.08,0.000000,,2013-06-04 06:02:00,
2013-06-04 02:12:00,56.0,50.0,-100.00,NNW,328,2.0,6.0,80,0.00,,,0.08,0.000000,,2013-06-04 06:12:00,
2013-06-04 02:22:00,56.0,50.0,-100.00,NNW,328,2.0,6.0,80,0.00,,,0.08,0.000000,,2013-06-04 06:22:00,
2013-06-04 02:52:00,55.0,50.0,-100.00,NNW,332,3.0,6.0,83,0.00,,,0.08,0.000000,,2013-06-04 06:52:00,
2013-06-04 03:02:00,55.0,50.0,-100.00,NNW,332,3.0,6.0,83,0.00,,,0.08,0.000000,,2013-06-04 07:02:00,
2013-06-04 03:13:00,55.0,50.0,-100.00,NNW,332,3.0,6.0,83,0.00,,,0.08,0.000000,,2013-06-04 07:13:00,
2013-06-04 03:22:00,55.0,50.0,-100.00,NNW,332,3.0,6.0,83,0.00,,,0.08,0.000000,,2013-06-04 07:22:00,
2013-06-04 03:52:00,54.0,47.0,-100.00,NW,322,2.0,7.0,78,0.00,,,0.08,0.000000,,2013-06-04 07:52:00,
2013-06-04 04:02:00,54.0,47.0,-100.00,NW,322,2.0,7.0,78,0.00,,,0.08,0.000000,,2013-06-04 08:02:00,
2013-06-04 04:12:00,54.0,47.0,-100.00,NW,322,2.0,7.0,78,0.00,,,0.08,0.000000,,2013-06-04 08:12:00,
2013-06-04 04:22:00,54.0,47.0,-100.00,NW,322,2.0,7.0,78,0.00,,,0.08,0.000000,,2013-06-04 08:22:00,
2013-06-04 04:52:00,50.0,48.0,-100.00,North,4,1.0,3.0,92,0.00,,,0.08,0.000000,,2013-06-04 08:52:00,
2013-06-04 05:02:00,50.0,48.0,-100.00,North,4,1.0,3.0,92,0.00,,,0.08,0.000000,,2013-06-04 09:02:00,
2013-06-04 05:12:00,50.0,48.0,-100.00,North,4,1.0,3.0,92,0.00,,,0.08,0.000000,,2013-06-04 09:12:00,
2013-06-04 05:22:00,50.0,48.0,-100.00,North,4,1.0,3.0,92,0.00,,,0.08,0.000000,,2013-06-04 09:22:00,
2013-06-04 05:53:00,50.0,46.0,-100.00,NNW,332,2.0,5.0,86,0.00,,,0.08,3.000000,,2013-06-04 09:53:00,
2013-06-04 06:03:00,50.0,46.0,-100.00,NNW,332,2.0,5.0,86,0.00,,,0.08,3.000000,,2013-06-04 10:03:00,
2013-06-04 06:12:00,50.0,46.0,-100.00,NNW,332,2.0,5.0,86,0.00,,,0.08,3.000000,,2013-06-04 10:12:00,
2013-06-04 06:23:00,50.0,46.0,-100.00,NNW,332,2.0,5.0,86,0.00,,,0.08,3.000000,,2013-06-04 10:23:00,
2013-06-04 06:53:00,52.0,46.0,-100.00,WNW,301,2.0,5.0,80,0.00,,,0.08,21.000000,,2013-06-04 10:53:00,
2013-06-04 07:02:00,52.0,46.0,-100.00,WNW,301,2.0,5.0,80,0.00,,,0.08,21.000000,,2013-06-04 11:02:00,
2013-06-04 07:12:00,52.0,46.0,-100.00,WNW,301,2.0,5.0,80,0.00,,,0.08,21.000000,,2013-06-04 11:12:00,
2013-06-04 07:22:00,52.0,46.0,-100.00,WNW,301,2.0,5.0,80,0.00,,,0.08,21.000000,,2013-06-04 11:22:00,
2013-06-04 07:52:00,60.0,46.0,-100.00,NW,306,4.0,9.0,59,0.00,,,0.07,268.000000,,2013-06-04 11:52:00,
2013-06-04 08:02:00,60.0,46.0,-100.00,NW,306,4.0,9.0,59,0.00,,,0.07,268.000000,,2013-06-04 12:02:00,
2013-06-04 08:12:00,60.0,46.0,-100.00,NW,306,4.0,9.0,59,0.00,,,0.07,268.000000,,2013-06-04 12:12:00,
2013-06-04 08:22:00,60.0,46.0,-100.00,NW,306,4.0,9.0,59,0.00,,,0.07,268.000000,,2013-06-04 12:22:00,
2013-06-04 08:53:00,64.0,44.0,-100.00,NW,316,5.0,13.0,49,0.00,,,0.03,452.000000,,2013-06-04 12:53:00,
2013-06-04 09:03:00,64.0,44.0,-100.00,NW,316,5.0,13.0,49,0.00,,,0.03,452.000000,,2013-06-04 13:03:00,
2013-06-04 09:12:00,64.0,44.0,-100.00,NW,316,5.0,13.0,49,0.00,,,0.03,452.000000,,2013-06-04 13:12:00,
2013-06-04 09:22:00,64.0,44.0,-100.00,NW,316,5.0,13.0,49,0.00,,,0.03,452.000000,,2013-06-04 13:22:00,
2013-06-04 09:52:00,66.0,43.0,-100.00,WNW,291,6.0,17.0,44,0.00,,,0.02,622.000000,,2013-06-04 13:52:00,
2013-06-04 10:02:00,66.0,43.0,-100.00,WNW,291,6.0,17.0,44,0.00,,,0.02,622.000000,,2013-06-04 14:02:00,
2013-06-04 10:12:00,66.0,43.0,-100.00,WNW,291,6.0,17.0,44,0.00,,,0.02,622.000000,,2013-06-04 14:12:00,
2013-06-04 10:22:00,66.0,43.0,-100.00,WNW,291,6.0,17.0,44,0.00,,,0.02,622.000000,,2013-06-04 14:22:00,
2013-06-04 10:52:00,66.0,42.0,-100.00,NW,313,7.0,19.0,41,0.00,,,0.01,763.000000,,2013-06-04 14:52:00,
2013-06-04 11:02:00,66.0,42.0,-100.00,NW,313,7.0,19.0,41,0.00,,,0.01,763.000000,,2013-06-04 15:02:00,
2013-06-04 11:12:00,66.0,42.0,-100.00,NW,313,7.0,19.0,41,0.00,,,0.01,763.000000,,2013-06-04 15:12:00,
2013-06-04 11:22:00,66.0,42.0,-100.00,NW,313,7.0,19.0,41,0.00,,,0.01,763.000000,,2013-06-04 15:22:00,
2013-06-04 11:53:00,65.0,40.0,-100.00,NW,306,8.0,20.0,40,0.00,,,0.00,602.000000,,2013-06-04 15:53:00,
2013-06-04 12:03:00,65.0,40.0,-100.00,NW,306,8.0,20.0,40,0.00,,,0.00,602.000000,,2013-06-04 16:03:00,
2013-06-04 12:13:00,65.0,40.0,-100.00,NW,306,8.0,20.0,40,0.00,,,0.00,602.000000,,2013-06-04 16:13:00,
2013-06-04 12:23:00,65.0,40.0,-100.00,NW,306,8.0,20.0,40,0.00,,,0.00,602.000000,,2013-06-04 16:23:00,
2013-06-04 12:53:00,67.0,41.0,-100.00,NW,312,6.0,17.0,39,0.00,,,0.00,788.000000,,2013-06-04 16:53:00,
2013-06-04 13:03:00,67.0,41.0,-100.00,NW,312,6.0,17.0,39,0.00,,,0.00,788.000000,,2013-06-04 17:03:00,
2013-06-04 13:12:00,67.0,41.0,-100.00,NW,312,6.0,17.0,39,0.00,,,0.00,788.000000,,2013-06-04 17:12:00,
2013-06-04 13:23:00,67.0,41.0,-100.00,NW,312,6.0,17.0,39,0.00,,,0.00,788.000000,,2013-06-04 17:23:00,
2013-06-04 13:52:00,66.0,41.0,-100.00,NW,318,8.0,20.0,40,0.00,,,0.00,557.000000,,2013-06-04 17:52:00,
2013-06-04 14:02:00,66.0,41.0,-100.00,NW,318,8.0,20.0,40,0.00,,,0.00,557.000000,,2013-06-04 18:02:00,
2013-06-04 14:12:00,66.0,41.0,-100.00,NW,318,8.0,20.0,40,0.00,,,0.00,557.000000,,2013-06-04 18:12:00,
2013-06-04 14:22:00,66.0,41.0,-100.00,NW,318,8.0,20.0,40,0.00,,,0.00,557.000000,,2013-06-04 18:22:00,
2013-06-04 14:53:00,70.0,43.0,-100.00,WNW,293,7.0,21.0,37,0.00,,,0.00,933.000000,,2013-06-04 18:53:00,
2013-06-04 15:02:00,70.0,43.0,-100.00,WNW,293,7.0,21.0,37,0.00,,,0.00,933.000000,,2013-06-04 19:02:00,
2013-06-04 15:12:00,70.0,43.0,-100.00,WNW,293,7.0,21.0,37,0.00,,,0.00,933.000000,,2013-06-04 19:12:00,
2013-06-04 15:22:00,70.0,43.0,-100.00,WNW,293,7.0,21.0,37,0.00,,,0.00,933.000000,,2013-06-04 19:22:00,
2013-06-04 15:52:00,68.0,41.0,-100.00,WNW,302,9.0,19.0,37,0.00,,,0.00,687.000000,,2013-06-04 19:52:00,
2013-06-04 16:03:00,68.0,41.0,-100.00,WNW,302,9.0,19.0,37,0.00,,,0.00,687.000000,,2013-06-04 20:03:00,
2013-06-04 16:13:00,68.0,41.0,-100.00,WNW,302,9.0,19.0,37,0.00,,,0.00,687.000000,,2013-06-04 20:13:00,
2013-06-04 16:22:00,68.0,41.0,-100.00,WNW,302,9.0,19.0,37,0.00,,,0.00,687.000000,,2013-06-04 20:22:00,
2013-06-04 16:53:00,69.0,40.0,-100.00,NW,313,7.0,16.0,35,0.00,,,0.00,669.000000,,2013-06-04 20:53:00,
2013-06-04 17:02:00,69.0,40.0,-100.00,NW,313,7.0,16.0,35,0.00,,,0.00,669.000000,,2013-06-04 21:02:00,
2013-06-04 17:12:00,69.0,40.0,-100.00,NW,313,7.0,16.0,35,0.00,,,0.00,669.000000,,2013-06-04 21:12:00,
2013-06-04 17:22:00,69.0,40.0,-100.00,NW,313,7.0,16.0,35,0.00,,,0.00,669.000000,,2013-06-04 21:22:00,
2013-06-04 17:53:00,69.0,42.0,-100.00,WNW,299,6.0,15.0,37,0.00,,,0.00,524.000000,,2013-06-04 21:53:00,
2013-06-04 18:02:00,69.0,42.0,-100.00,WNW,299,6.0,15.0,37,0.00,,,0.00,524.000000,,2013-06-04 22:02:00,
2013-06-04 18:13:00,69.0,42.0,-100.00,WNW,299,6.0,15.0,37,0.00,,,0.00,524.000000,,2013-06-04 22:13:00,
2013-06-04 18:22:00,69.0,42.0,-100.00,WNW,299,6.0,15.0,37,0.00,,,0.00,524.000000,,2013-06-04 22:22:00,
2013-06-04 18:52:00,68.0,41.0,-100.00,WNW,286,5.0,16.0,37,0.00,,,0.00,252.000000,,2013-06-04 22:52:00,
2013-06-04 19:02:00,68.0,41.0,-100.00,WNW,286,5.0,16.0,37,0.00,,,0.00,252.000000,,2013-06-04 23:02:00,
2013-06-04 19:12:00,68.0,41.0,-100.00,WNW,286,5.0,16.0,37,0.00,,,0.00,252.000000,,2013-06-04 23:12:00,
2013-06-04 19:22:00,68.0,41.0,-100.00,WNW,286,5.0,16.0,37,0.00,,,0.00,252.000000,,2013-06-04 23:22:00,
2013-06-04 19:52:00,63.0,40.0,-100.00,NW,311,4.0,17.0,43,0.00,,,0.00,104.000000,,2013-06-04 23:52:00,
2013-06-04 20:02:00,63.0,40.0,-100.00,NW,311,4.0,17.0,43,0.00,,,0.00,104.000000,,2013-06-05 00:02:00,
2013-06-04 20:12:00,63.0,40.0,-100.00,NW,311,4.0,17.0,43,0.00,,,0.00,104.000000,,2013-06-05 00:12:00,
2013-06-04 20:22:00,63.0,40.0,-100.00,NW,311,4.0,17.0,43,0.00,,,0.00,104.000000,,2013-06-05 00:22:00,
2013-06-04 20:52:00,58.0,43.0,-100.00,South,181,1.0,7.0,57,0.00,,,0.00,12.000000,,2013-06-05 00:52:00,
2013-06-04 21:02:00,58.0,43.0,-100.00,South,181,1.0,7.0,57,0.00,,,0.00,12.000000,,2013-06-05 01:02:00,
2013-06-04 21:12:00,58.0,43.0,-100.00,South,181,1.0,7.0,57,0.00,,,0.00,12.000000,,2013-06-05 01:12:00,
2013-06-04 21:22:00,58.0,43.0,-100.00,South,181,1.0,7.0,57,0.00,,,0.00,12.000000,,2013-06-05 01:22:00,
2013-06-04 21:52:00,55.0,44.0,-100.00,NW,311,0.0,3.0,66,0.00,,,0.00,1.000000,,2013-06-05 01:52:00,
2013-06-04 22:02:00,55.0,44.0,-100.00,NW,311,0.0,3.0,66,0.00,,,0.00,1.000000,,2013-06-05 02:02:00,
2013-06-04 22:12:00,55.0,44.0,-100.00,NW,311,0.0,3.0,66,0.00,,,0.00,1.000000,,2013-06-05 02:12:00,
2013-06-04 22:22:00,55.0,44.0,-100.00,NW,311,0.0,3.0,66,0.00,,,0.00,1.000000,,2013-06-05 02:22:00,
2013-06-04 22:52:00,54.0,44.0,-100.00,WNW,292,2.0,5.0,68,0.00,,,0.00,0.000000,,2013-06-05 02:52:00,
2013-06-04 23:02:00,54.0,44.0,-100.00,WNW,292,2.0,5.0,68,0.00,,,0.00,0.000000,,2013-06-05 03:02:00,
2013-06-04 23:12:00,54.0,44.0,-100.00,WNW,292,2.0,5.0,68,0.00,,,0.00,0.000000,,2013-06-05 03:12:00,
2013-06-04 23:22:00,54.0,44.0,-100.00,WNW,292,2.0,5.0,68,0.00,,,0.00,0.000000,,2013-06-05 03:22:00,
2013-06-04 23:53:00,53.0,44.0,-100.00,WNW,282,2.0,5.0,71,0.00,,,0.00,0.000000,,2013-06-05 03:53:00,